STARLINK-2452, 48115

Orbit data source: Space-Track

STARLINK-2452, 48115 is a payload satellite owned by SpaceX/Seattle (US) in LEO that was launched on Wed, 07 Apr 2021 UTC via an FALCON 9 launch vehicle from the Air Force Eastern Test Range (AFETR). Payload-class satellites include a variety of spacecraft equipped with specific instruments for various scientific and technological missions. These include communications satellites like Starlink; space stations such as the ISS; scientific satellites like the Hubble; Earth observation satellites from companies like Planet Labs, Umbra, and HawkEye 360; GPS; miniature CubeSats for education and research; and military/defense satellites.

Loading next visibility...
Identifier
48115, 2021-027Z
Orbit
LEO
Country
Flag of USUS
Related business
Manufacturer
SpaceX/Seattle
Mission
Operational Commercial Communications
Bus & Motor
STARLINK, Unknown motor
Mass
260 kg wet, ~248 kg dry
Launch date (UTC)
2021-04-07 (5 years ago)
Launch vehicle
FALCON 9
Launch site
Air Force Eastern Test Range (AFETR)
Object type
Payload
Rocket body
Debris
Shape & HBR
Box + 1 Pan, 10.1 m
Radar Cross Section
13.562 m², Large (>1 m²)

Expand to show TLE details & history
Last TLE update: 2 days ago

TLE from 2 days ago
0 STARLINK-2452
1 48115U 21027Z   26171.33317035  .00000293  00000-0  21200-4 0  9996
2 48115  53.1610  37.3962 0001141  94.4413 265.6719 15.31704400288378
Epoch: 2026-06-20T07:59Z
TLE epoch observation values (Epoch: 2026-06-20T07:59:45.918Z)
Latitude
0.00001°
Longitude
8.90558°
Altitude
471.686 km
Speed
7.631 km/s
True Right ascension
02h 29m 35s
True Declination
0° 00' 00"
Sunlit
Object was in daylight at epoch
Visualization orbit readout
Latitude
Unknown
Longitude
Unknown
Altitude
Unknown
Speed
Unknown
Apparent Right ascension
Unknown
Apparent Declination
Unknown
Sunlit
N/A
Visualization observer readout
Local Sidereal Time
21:25:37
Azimuth
Unknown
Elevation
Unknown
Doppler factor
Unknown
Orbital elements
Apogee altitude
471.765 km
Perigee altitude
470.202 km
Semi-major axis
6,849.12 km
Eccentricity
0.00011
Inclination
53.161°
RAAN
37.3962°
Arg. of periapsis
94.4413°
True anomaly
265.65886°
Mean anomaly
265.6719°
Eccentric anomaly
265.66538°
Mean motion
3.82905 °/min
Orbital period
94.02 mins
BSTAR
0.0000212
Loading maneuver chart data...
Computing Atmospheric mass density...

Documentation

Showing up to 5 results
|